Wind_Speed
25 25 24 23 24 24 24 23 23 21 19 19 18 17 16 15 14 13 12 11 10 9 9 8 7 6 7 7 8 9 10 12 14 16 17 18 19 20 20 21 21 22 23 24
26 26 26 26 25 25 25 25 24 23 22 21 21 20 19 17 16 15 14 13 12 11 11 10 9 9 9 8 8 10 11 12 14 15 17 18 19 20 20 21 22 22 24 25
27 28 28 28 26 26 26 25 26 26 24 24 23 22 22 20 18 17 16 15 14 14 13 12 11 11 11 11 11 11 12 13 14 15 16 18 19 20 21 22 23 24 25 27
28 29 31 28 27 27 27 26 26 26 26 26 25 24 23 22 20 19 18 17 16 15 14 13 13 13 13 13 13 13 13 14 15 16 17 18 20 21 22 23 25 27 28 30
29 29 30 30 27 27 27 27 27 27 26 26 25 25 24 23 22 21 20 19 18 17 16 15 14 15 15 15 16 16 16 16 17 18 19 21 21 23 24 25 27 28 29 30
28 28 29 29 27 26 27 28 27 27 27 26 26 26 26 24 24 23 22 20 20 19 19 18 18 18 18 18 17 17 17 18 19 20 22 24 24 25 26 28 29 30 31 32
26 27 27 27 25 25 27 27 26 27 27 27 27 27 26 26 25 23 23 22 21 21 20 20 20 20 20 20 20 20 20 19 20 21 22 23 25 26 27 29 30 32 33 34
25 25 25 23 23 24 25 26 26 27 27 28 27 26 27 27 26 25 25 24 23 22 22 22 22 22 22 22 22 22 22 22 22 23 24 25 26 27 28 29 31 32 34 35
24 24 23 22 22 23 23 25 26 26 27 27 27 27 28 28 28 27 26 25 25 25 25 24 24 24 24 24 25 25 24 24 24 25 26 27 27 29 30 30 32 33 34 36
22 22 22 21 22 22 22 23 25 26 27 28 27 27 27 28 28 28 27 27 27 27 26 26 26 26 26 25 24 24 24 25 26 27 27 28 29 30 31 32 33 34 36 37
20 20 20 20 21 21 22 23 23 24 26 28 28 27 27 28 28 28 28 29 29 28 27 27 27 27 27 27 26 27 28 28 29 29 30 30 31 32 33 33 34 35 36 37
18 18 19 19 19 19 20 21 23 24 26 27 27 27 27 28 28 28 29 29 28 29 29 29 29 29 29 28 28 28 29 30 30 31 31 31 32 32 33 34 34 36 37 39
15 15 16 17 18 18 19 19 21 24 25 26 26 27 27 28 28 28 28 29 28 29 29 29 29 29 29 29 29 29 30 29 30 30 31 32 32 33 34 35 36 37 39 40
13 13 14 14 15 16 17 18 19 21 22 22 22 23 25 26 26 27 27 27 28 28 27 27 27 27 28 28 28 28 28 29 29 30 31 32 33 34 35 36 38 39 41 42
11 11 12 12 14 15 14 15 16 17 18 19 20 21 21 22 23 24 25 26 26 27 26 26 26 25 25 25 26 27 27 28 29 30 32 34 35 36 37 39 41 43 44 46
10 9 10 11 11 12 13 14 13 13 14 15 17 18 18 19 19 19 20 21 22 22 22 22 22 23 24 25 26 27 27 29 30 32 33 34 36 38 40 42 44 45 47 49
9 10 10 10 10 10 11 12 12 12 12 13 13 14 15 15 16 17 17 18 20 20 20 20 20 21 22 24 26 28 29 30 32 33 35 37 39 41 43 45 47 48 50 51
10 10 9 10 10 10 9 10 11 11 12 12 13 14 15 15 15 16 16 17 17 18 18 20 21 22 24 25 27 29 31 32 34 36 38 40 42 44 45 47 49 50 51 52
11 10 10 10 10 10 10 10 11 11 11 11 11 11 12 12 13 14 15 16 17 18 20 21 23 24 26 27 29 31 33 35 37 39 41 43 44 45 47 48 49 50 50 50
11 11 10 10 10 10 11 10 10 10 10 10 10 11 12 12 13 14 16 17 19 20 22 23 25 27 29 30 32 34 36 38 40 41 42 44 45 46 47 47 48 47 47 46
11 11 11 11 11 11 11 11 11 11 12 12 12 12 14 15 16 17 18 20 21 23 24 26 28 30 32 33 35 37 39 40 41 42 43 44 45 45 46 46 45 45 44 43
11 11 11 11 11 11 11 11 11 12 12 13 13 14 16 17 18 20 21 22 24 26 28 29 31 33 34 36 38 39 40 41 42 43 43 43 44 44 44 43 43 42 41 40
11 11 11 11 11 11 11 11 12 13 13 14 15 16 18 19 21 22 23 25 27 29 30 32 33 35 36 38 39 40 40 41 42 42 42 42 42 42 41 41 40 39 38 37
12 12 12 12 12 13 13 14 14 15 16 17 18 19 21 22 24 25 27 28 30 31 33 34 35 37 38 39 39 39 40 40 41 41 40 40 39 39 38 37 36 35 34 32
14 14 14 14 14 15 15 16 16 17 18 19 21 22 24 25 27 28 29 31 32 33 34 35 36 37 38 38 38 38 38 38 38 37 37 36 36 35 34 33 32 30 28 27
14 14 14 15 16 16 17 17 18 20 21 22 24 25 26 27 29 30 31 32 32 34 34 35 35 35 35 35 35 35 35 34 34 34 33 33 32 31 30 28 27 25 23 23
15 15 16 17 17 18 19 20 21 22 24 25 26 27 28 29 29 30 31 32 33 33 33 33 33 33 32 32 32 32 32 32 31 30 29 29 27 26 24 23 22 21 20 18
Wind_Direction
240 243 248 250 250 250 251 252 251 251 251 250 251 254 257 262 264 267 269 271 273 274 269 266 268 266 259 253 246 237 232 231 231 229 229 231 233 235 238 241 242 244 247 250
248 250 252 253 251 252 254 254 253 250 249 247 246 250 254 258 260 260 262 264 265 267 266 262 259 258 257 255 251 244 240 240 239 237 237 239 241 243 245 247 250 252 252 254
249 252 253 253 251 252 253 252 250 249 248 247 245 246 250 253 253 254 255 257 260 262 262 260 256 252 254 254 256 254 250 248 248 247 245 245 247 250 252 254 256 259 260 261
251 254 255 255 253 251 251 251 250 248 247 246 243 243 246 248 248 248 251 254 258 259 257 257 256 253 253 255 258 259 256 252 249 250 251 253 255 256 258 259 260 262 264 266
254 256 258 257 254 251 251 250 248 247 245 243 240 240 242 242 243 244 247 251 253 255 255 254 254 255 254 256 259 260 260 261 258 254 254 257 260 262 264 264 265 265 267 268
255 256 258 258 253 250 249 247 244 244 241 240 238 238 238 238 240 242 246 249 250 252 253 254 255 255 256 256 259 259 261 262 263 261 260 261 264 266 266 266 267 268 269 271
255 256 256 255 253 248 246 243 241 240 238 236 235 235 235 236 237 240 244 245 248 250 251 254 256 256 257 259 259 260 262 264 265 264 264 266 268 269 269 269 270 270 272 272
254 255 254 253 250 246 243 240 238 235 235 235 235 235 234 235 237 239 241 242 245 248 250 254 255 256 258 259 260 261 263 264 266 266 267 269 271 272 273 275 275 276 276 276
252 253 253 251 248 244 241 238 236 234 233 231 232 233 232 232 234 236 237 239 242 246 250 253 255 257 257 257 259 261 263 265 267 269 269 271 273 275 276 277 277 278 278 279
250 250 249 248 244 241 238 235 233 232 231 230 231 232 232 232 234 236 237 239 242 245 250 252 254 255 254 255 258 262 264 267 269 271 272 274 275 276 277 278 279 279 280 280
248 247 249 246 243 239 237 232 230 230 229 228 229 230 231 232 234 236 237 239 241 244 248 251 253 254 254 256 259 263 265 268 270 271 272 275 276 278 279 280 281 281 282 282
245 245 246 242 240 238 234 229 227 227 227 227 227 229 231 234 236 237 238 240 243 245 248 250 253 256 257 258 260 263 266 268 270 272 275 277 280 280 280 281 282 283 283 283
241 239 238 236 234 232 229 228 229 228 227 227 228 229 231 234 236 236 239 243 245 247 248 250 252 256 258 260 261 263 266 268 271 275 277 279 281 282 283 284 284 284 284 285
237 235 232 231 233 231 228 226 223 222 223 224 226 228 230 233 234 238 243 246 249 250 250 252 255 257 259 261 263 265 268 271 274 277 279 281 283 284 285 286 287 287 287 288
230 231 229 228 225 222 222 220 217 216 218 221 224 226 228 232 235 239 244 247 249 250 250 253 256 257 259 262 265 269 272 275 278 280 282 284 285 287 287 288 289 290 290 291
222 220 220 215 212 212 210 210 213 217 217 218 221 225 229 232 236 242 245 246 247 249 251 254 258 260 261 265 270 274 277 280 282 284 286 287 289 290 290 291 291 292 292 292
208 212 214 212 212 209 212 212 215 218 219 223 228 233 236 239 243 245 247 248 250 253 257 260 263 267 271 274 278 280 283 284 285 287 289 291 292 293 294 294 294 294 294 294
207 206 209 210 211 207 208 213 216 222 227 231 235 237 238 240 243 248 253 257 259 262 266 270 273 276 278 281 284 285 287 288 289 290 291 293 294 295 295 296 296 296 296 296
202 201 205 206 210 214 217 215 219 224 225 227 230 233 240 248 253 259 264 269 272 274 277 279 281 282 284 287 288 289 290 291 292 293 294 295 296 297 297 298 298 298 299 298
203 201 205 208 212 212 215 219 225 232 239 242 248 254 260 265 268 272 275 277 279 281 282 284 286 288 290 291 292 293 294 295 296 297 297 298 298 299 299 299 300 300 300 300
208 214 219 222 226 228 232 237 243 249 251 254 258 264 269 272 275 277 280 283 284 286 288 290 291 292 293 294 295 296 296 297 297 298 299 300 300 300 300 301 301 301 301 301
216 223 226 227 232 237 242 247 253 256 258 260 264 268 273 277 280 283 285 287 289 291 292 293 295 296 296 297 297 298 298 298 299 299 300 301 301 302 302 302 302 302 302 302
220 225 227 232 237 241 246 253 258 262 265 268 273 276 280 283 286 289 290 292 293 294 295 296 297 298 299 299 300 300 300 300 300 301 301 302 302 302 302 302 302 301 301 301
223 227 234 240 248 252 255 259 264 269 273 277 281 284 286 289 291 292 293 294 295 296 296 298 299 299 300 300 301 301 301 302 302 303 303 303 303 303 303 303 302 302 301 301
229 234 242 248 252 256 262 267 271 274 277 280 284 287 288 290 292 293 294 295 295 297 298 299 300 300 301 302 303 303 304 304 305 305 305 304 304 305 305 305 304 303 302 301
238 246 251 256 260 264 268 273 276 278 281 284 286 288 290 291 293 294 295 296 297 299 300 301 302 303 304 304 305 305 305 306 306 306 306 307 307 307 307 306 304 303 303 304
247 254 259 264 267 270 273 277 280 284 286 287 288 290 291 292 294 295 297 299 301 302 303 303 304 304 305 305 306 306 307 308 308 308 308 309 309 309 309 309 308 306 306 306
Height
5801 5802 5804 5806 5807 5809 5810 5813 5815 5817 5818 5819 5819 5819 5820 5820 5821 5821 5821 5821 5821 5821 5821 5821 5821 5822 5822 5822 5823 5824 5825 5826 5828 5829 5831 5833 5835 5836 5838 5840 5841 5843 5844 5846
5793 5795 5796 5798 5800 5802 5804 5806 5807 5809 5812 5813 5813 5814 5815 5816 5817 5817 5818 5818 5818 5818 5818 5819 5819 5820 5820 5821 5821 5822 5823 5824 5825 5826 5828 5830 5831 5833 5834 5836 5837 5838 5839 5840
5786 5787 5788 5790 5793 5795 5796 5798 5800 5802 5805 5806 5807 5809 5810 5811 5812 5813 5813 5814 5815 5815 5815 5816 5817 5817 5818 5819 5819 5820 5821 5821 5822 5824 5825 5826 5828 5829 5830 5831 5832 5833 5834 5834
5777 5780 5780 5785 5785 5787 5789 5791 5792 5794 5796 5798 5800 5802 5804 5805 5806 5807 5809 5810 5810 5811 5812 5813 5813 5814 5815 5816 5816 5817 5818 5818 5819 5820 5822 5823 5824 5825 5826 5826 5827 5827 5827 5827
5769 5771 5772 5775 5777 5779 5781 5782 5784 5786 5788 5790 5793 5795 5797 5799 5800 5802 5804 5805 5805 5807 5808 5809 5810 5810 5811 5812 5813 5813 5814 5814 5815 5816 5817 5818 5819 5819 5820 5820 5820 5820 5820 5820
5761 5763 5764 5767 5768 5770 5773 5773 5776 5777 5780 5783 5786 5788 5791 5792 5794 5796 5798 5799 5800 5802 5803 5804 5805 5806 5807 5807 5808 5809 5810 5810 5810 5811 5812 5812 5813 5813 5813 5813 5813 5812 5812 5812
5753 5754 5756 5758 5760 5762 5765 5766 5768 5769 5772 5775 5777 5781 5784 5785 5788 5790 5792 5794 5795 5797 5798 5799 5800 5801 5802 5802 5803 5804 5805 5805 5805 5806 5806 5806 5806 5806 5806 5805 5805 5804 5803 5803
5745 5747 5750 5750 5752 5754 5755 5757 5759 5762 5764 5767 5770 5773 5776 5779 5781 5783 5785 5788 5789 5791 5792 5793 5794 5795 5796 5797 5797 5798 5798 5799 5799 5799 5799 5799 5799 5798 5798 5797 5796 5795 5794 5793
5738 5741 5741 5742 5743 5745 5747 5750 5752 5754 5757 5760 5763 5766 5769 5772 5774 5777 5779 5781 5783 5785 5786 5787 5788 5789 5790 5790 5791 5792 5792 5792 5793 5792 5792 5791 5791 5790 5790 5789 5788 5786 5785 5783
5730 5732 5733 5734 5736 5738 5740 5742 5745 5747 5750 5753 5756 5759 5762 5765 5767 5770 5772 5775 5776 5778 5779 5781 5782 5782 5783 5783 5784 5785 5785 5786 5786 5785 5785 5784 5783 5782 5781 5780 5778 5777 5775 5773
5724 5725 5726 5728 5729 5731 5733 5735 5738 5740 5743 5747 5750 5753 5755 5758 5761 5763 5765 5767 5769 5770 5772 5774 5774 5775 5776 5776 5777 5778 5778 5778 5778 5777 5776 5776 5775 5773 5772 5770 5769 5767 5765 5763
5718 5719 5720 5722 5723 5725 5727 5729 5732 5734 5737 5740 5743 5746 5749 5751 5754 5756 5758 5760 5761 5763 5764 5766 5767 5768 5768 5769 5769 5770 5770 5770 5770 5769 5768 5767 5765 5764 5762 5761 5759 5757 5755 5752
5713 5713 5715 5716 5718 5719 5722 5724 5726 5728 5731 5734 5737 5740 5743 5745 5747 5749 5751 5753 5754 5756 5757 5758 5759 5760 5761 5761 5762 5762 5762 5762 5761 5760 5759 5758 5756 5754 5752 5750 5748 5746 5743 5740
5709 5710 5711 5712 5713 5715 5717 5719 5721 5724 5726 5729 5731 5734 5736 5739 5741 5743 5745 5746 5748 5749 5749 5751 5751 5752 5753 5754 5754 5754 5754 5753 5752 5751 5750 5748 5746 5744 5742 5739 5737 5734 5731 5728
5706 5707 5708 5709 5710 5711 5714 5716 5718 5720 5722 5724 5727 5729 5731 5733 5735 5737 5738 5740 5741 5742 5743 5744 5745 5745 5746 5746 5747 5746 5745 5745 5743 5742 5740 5738 5736 5734 5731 5728 5725 5721 5718 5714
5703 5705 5706 5707 5708 5709 5711 5713 5715 5717 5719 5721 5723 5725 5727 5728 5730 5731 5733 5734 5735 5736 5737 5738 5739 5739 5739 5739 5739 5738 5737 5736 5734 5733 5730 5728 5725 5723 5720 5716 5712 5708 5704 5700
5701 5703 5704 5705 5707 5708 5709 5711 5713 5715 5716 5718 5720 5722 5724 5725 5727 5728 5729 5730 5731 5731 5732 5732 5733 5733 5732 5732 5731 5730 5728 5727 5725 5723 5720 5717 5714 5711 5707 5703 5699 5695 5690 5686
5699 5701 5702 5703 5705 5706 5708 5710 5712 5713 5714 5716 5718 5719 5720 5722 5723 5724 5725 5726 5726 5727 5727 5727 5727 5726 5725 5724 5723 5721 5719 5717 5715 5712 5709 5706 5702 5698 5694 5690 5685 5680 5675 5670
5697 5699 5700 5702 5703 5705 5706 5708 5710 5711 5712 5714 5715 5716 5717 5718 5719 5720 5721 5721 5721 5721 5721 5721 5720 5719 5717 5716 5714 5712 5709 5707 5704 5700 5697 5693 5689 5685 5680 5675 5670 5665 5660 5655
5696 5697 5699 5700 5702 5703 5705 5706 5708 5709 5710 5711 5712 5713 5714 5715 5715 5716 5716 5716 5715 5715 5714 5713 5712 5710 5709 5706 5704 5701 5698 5695 5692 5688 5684 5680 5676 5671 5666 5661 5656 5651 5646 5641
5694 5696 5698 5699 5700 5701 5702 5704 5705 5706 5707 5708 5709 5709 5710 5711 5711 5711 5710 5710 5709 5708 5707 5705 5703 5701 5699 5696 5693 5690 5687 5683 5679 5675 5671 5667 5662 5657 5652 5647 5642 5637 5632 5627
5691 5693 5695 5696 5698 5699 5700 5701 5702 5703 5704 5704 5705 5705 5706 5706 5705 5705 5704 5703 5702 5700 5698 5696 5694 5691 5688 5685 5682 5678 5675 5671 5667 5663 5658 5654 5649 5644 5639 5634 5629 5624 5619 5614
5689 5691 5692 5694 5695 5696 5698 5698 5699 5700 5700 5700 5701 5701 5700 5700 5699 5698 5697 5695 5693 5691 5689 5687 5684 5681 5678 5674 5671 5667 5663 5658 5654 5650 5645 5640 5635 5631 5626 5621 5617 5612 5608 5603
5687 5688 5690 5691 5692 5693 5694 5695 5695 5695 5695 5695 5695 5695 5694 5693 5692 5690 5689 5687 5685 5682 5680 5677 5674 5671 5667 5663 5659 5655 5650 5646 5642 5637 5632 5628 5623 5619 5614 5610 5605 5601 5597 5593
5684 5685 5686 5687 5688 5689 5689 5690 5690 5690 5690 5690 5689 5688 5687 5686 5684 5682 5680 5678 5676 5673 5670 5667 5664 5660 5656 5652 5647 5643 5639 5635 5630 5626 5621 5617 5612 5608 5603 5599 5595 5591 5588 5584
5681 5682 5682 5683 5684 5684 5684 5684 5684 5684 5684 5683 5682 5681 5679 5678 5676 5674 5671 5669 5666 5663 5660 5656 5653 5649 5645 5641 5637 5633 5629 5624 5620 5616 5612 5607 5603 5599 5594 5590 5586 5583 5580 5577
5676 5677 5678 5678 5678 5678 5678 5678 5678 5677 5676 5675 5674 5673 5671 5669 5667 5665 5662 5659 5656 5653 5650 5646 5643 5639 5635 5631 5627 5624 5620 5615 5611 5607 5603 5599 5595 5591 5587 5583 5580 5576 5573 5571